Theta_e
301 301 301 302 302 302 302 302 303 303 303 303 303 304 304 304 305 305 305 306 307 309 309 308 309 310 313 313 314 324 321 322 318 316 318 317 317 318 321 324 327 339 342 346 347 345 344
301 301 301 302 302 302 302 302 303 303 303 303 304 304 304 304 305 305 308 310 311 311 311 311 311 311 312 315 319 321 322 323 322 316 317 318 318 321 322 324 327 334 336 345 344 341 342
301 301 302 302 302 302 302 303 303 303 303 304 304 305 305 305 305 305 310 310 310 309 312 311 312 312 313 311 317 325 325 325 324 319 318 318 320 321 323 326 327 327 330 337 345 342 347
301 302 302 302 302 302 302 303 303 303 304 304 304 305 306 306 306 306 311 311 309 315 315 318 317 315 312 313 314 317 322 325 326 321 318 319 318 320 319 321 321 329 329 332 341 343 347
302 302 302 302 302 302 302 303 304 305 307 307 306 306 306 306 306 306 311 311 309 316 314 313 319 320 318 316 322 322 325 327 325 321 318 318 318 318 319 319 319 327 331 334 336 343 348
302 302 302 302 302 302 303 304 305 306 307 309 309 308 308 307 306 307 312 310 308 310 322 311 321 320 317 319 321 324 324 325 323 323 320 319 319 315 316 318 321 328 335 335 337 345 348
302 302 302 302 303 303 304 304 304 305 307 308 309 310 310 309 306 308 312 309 308 308 309 308 307 311 309 311 316 323 325 324 325 324 321 321 320 320 319 319 322 330 333 336 336 344 350
302 302 302 303 303 303 304 306 307 307 306 306 307 308 309 309 307 310 312 308 308 307 307 311 311 309 310 310 309 320 322 325 324 322 322 326 326 323 324 325 326 329 332 335 336 336 342
302 302 302 303 304 306 307 306 305 304 304 304 304 306 309 310 307 307 311 308 308 308 307 309 314 313 313 312 310 315 319 321 324 321 322 326 329 328 330 329 329 329 330 332 334 335 344
302 303 303 305 306 306 305 303 303 303 303 303 304 304 308 310 307 309 309 308 310 309 305 311 314 314 313 313 312 316 315 317 322 323 320 322 326 329 330 331 329 330 330 332 334 335 341
304 304 305 306 306 305 303 303 304 304 304 303 303 304 307 309 307 308 307 309 310 310 309 315 311 312 311 311 313 312 315 316 318 322 319 322 326 329 330 331 330 330 330 331 332 332 334
305 306 306 306 305 304 304 304 304 304 304 303 303 305 311 309 308 308 308 310 311 309 314 311 310 309 308 309 310 310 312 314 318 318 321 322 323 327 329 330 330 330 328 327 327 326 331
305 306 306 305 304 303 303 303 304 304 304 303 304 307 312 309 309 309 309 310 307 310 311 310 308 307 307 307 308 310 311 312 318 318 317 320 323 324 326 329 329 329 326 328 328 329 330
305 305 305 304 303 303 303 303 303 304 303 303 304 312 312 310 310 310 310 306 311 312 309 309 307 307 307 307 307 309 309 310 317 318 320 320 322 323 326 328 329 327 328 328 331 328 330
304 304 304 304 304 304 303 303 303 303 302 302 303 313 312 311 312 311 310 307 310 308 308 308 306 306 306 308 308 309 308 311 314 316 318 320 323 326 326 327 329 329 328 326 323 322 324
303 303 303 303 303 303 303 302 302 302 302 301 303 312 311 312 312 312 305 308 309 310 308 307 306 307 306 306 308 307 309 310 314 315 314 317 319 321 323 325 329 330 325 327 319 330 327
302 302 302 302 302 302 301 302 302 301 301 302 305 309 311 310 311 311 306 306 310 309 309 307 307 307 306 307 307 306 308 309 312 314 314 315 316 321 320 322 325 331 330 324 324 319 326
301 301 301 301 301 301 301 301 301 301 302 304 306 305 310 310 308 307 307 307 309 310 309 307 308 308 307 308 307 307 307 310 311 313 314 315 317 319 320 321 322 327 327 324 325 322 319
300 301 301 300 300 300 300 301 302 303 303 304 306 308 309 309 305 305 306 307 309 310 310 309 308 307 307 309 308 307 309 310 312 312 314 315 320 322 322 321 322 322 324 320 317 319 320
300 300 300 301 303 305 305 306 306 306 305 305 307 303 307 306 306 305 306 308 308 309 309 309 309 308 307 307 306 308 309 311 312 311 314 314 316 319 321 319 319 321 322 323 321 322 321
304 305 307 307 307 306 306 306 306 306 306 305 307 304 306 302 304 304 305 306 308 309 309 308 309 309 308 308 307 307 308 308 309 311 313 313 314 313 312 314 318 322 323 327 323 323 324
307 307 307 307 306 306 306 305 306 307 306 306 306 307 305 305 305 305 304 306 309 308 307 308 308 308 307 305 305 306 307 306 307 311 311 310 313 310 311 316 321 325 327 329 328 324 323
307 306 307 308 307 307 307 307 307 307 306 306 307 307 306 305 305 306 305 307 307 307 307 308 308 308 307 307 307 306 307 307 306 310 309 309 310 311 314 321 325 330 326 330 328 324 323
307 308 309 309 309 309 309 309 308 308 306 306 306 306 305 306 306 307 306 306 307 308 307 308 308 308 308 307 308 307 306 305 306 308 309 310 310 310 313 321 332 326 322 323 332 330 328
309 310 310 309 309 309 309 308 308 307 307 306 306 307 306 305 305 306 307 308 307 306 307 308 308 307 307 308 304 305 304 307 308 307 309 309 311 312 315 325 327 326 322 323 323 329 324
311 309 307 307 307 306 306 306 306 306 307 307 307 307 307 305 306 305 306 306 307 308 307 306 306 307 309 303 305 309 310 314 316 316 310 309 311 312 313 322 334 319 319 322 327 329 324
308 305 305 305 306 308 308 309 309 308 307 307 308 308 307 305 306 306 306 307 307 307 307 305 307 307 308 309 312 313 313 312 317 317 313 311 312 315 315 320 326 316 318 320 328 326 321
305 305 308 311 312 312 312 312 310 308 309 309 309 309 308 307 308 308 307 307 307 307 308 306 304 307 308 308 310 311 312 311 313 312 313 315 318 317 316 320 326 313 316 320 316 315 315
307 311 312 313 313 313 314 311 309 309 309 309 309 309 309 308 309 308 309 309 309 308 307 307 307 307 307 305 305 307 310 311 312 313 312 314 312 314 312 315 311 309 314 315 315 313 313
Wind_Speed
20 20 20 20 21 22 23 23 24 24 25 25 25 25 26 26 27 26 24 24 24 25 24 22 20 13 10 8 23 9 10 3 16 33 31 33 28 18 8 10 19 12 17 15 18 10 8
20 20 21 22 22 23 24 24 25 26 27 28 28 28 28 27 27 26 24 24 26 24 24 23 20 17 9 6 7 7 21 11 10 32 33 29 23 31 8 16 9 8 22 16 7 10 4
21 21 22 22 22 23 24 26 27 28 29 29 30 30 29 28 28 26 22 24 25 30 28 18 16 16 15 27 4 4 9 19 14 20 35 35 19 24 14 4 39 25 15 11 14 16 3
21 21 22 22 23 25 26 27 27 28 29 30 30 30 30 28 27 25 22 25 28 23 17 13 13 11 13 10 11 21 19 22 16 17 27 31 32 19 11 15 11 6 11 13 16 12 12
21 21 22 23 24 25 25 26 28 30 32 33 34 33 31 29 27 24 20 25 31 13 13 16 5 5 15 7 11 9 21 24 18 15 24 22 22 14 8 3 5 2 7 7 14 22 14
22 23 24 25 25 25 26 27 29 31 34 36 37 37 33 30 25 21 20 24 28 12 13 16 5 9 10 4 12 8 11 23 24 18 17 18 14 5 6 4 9 5 4 6 10 5 18
22 23 24 23 24 26 27 28 30 32 33 34 35 38 36 31 24 16 21 21 29 10 19 28 32 28 48 27 24 11 13 25 26 21 8 19 9 16 18 10 8 6 7 10 8 16 25
22 23 22 22 24 25 26 28 31 33 34 36 37 38 42 33 23 12 14 20 19 21 20 28 18 25 30 26 14 12 3 18 12 11 7 4 20 12 8 9 14 13 14 16 14 10 10
22 21 22 24 25 26 28 29 31 33 37 40 41 41 42 40 19 13 10 18 19 24 5 19 10 11 12 5 11 20 5 6 6 7 12 17 8 17 13 17 17 16 16 14 13 6 7
21 22 23 24 25 26 28 31 35 37 38 39 40 41 39 38 12 18 13 21 18 26 4 7 5 11 22 2 2 16 15 16 6 15 8 15 17 14 20 17 18 16 16 15 16 5 4
21 23 23 24 25 28 31 34 35 37 39 40 41 38 36 25 20 16 22 22 19 2 4 5 8 11 19 18 15 26 23 10 12 12 9 18 18 20 18 27 17 15 11 12 13 5 4
21 22 23 25 27 30 31 33 36 38 39 41 40 39 30 14 15 19 25 25 4 5 3 7 9 12 15 22 13 26 22 31 7 11 16 13 21 18 24 13 18 11 9 11 3 4 8
20 21 23 26 28 30 32 34 36 38 41 43 41 34 18 8 11 21 25 23 5 3 8 6 6 8 5 14 8 15 13 16 13 10 8 6 23 16 18 16 17 15 6 6 3 6 9
20 21 23 25 28 32 34 36 37 40 42 44 43 22 12 5 12 18 23 5 3 7 4 2 4 3 5 15 4 14 7 6 17 8 5 6 17 19 12 20 13 12 17 9 12 5 9
21 22 24 27 29 32 34 37 38 40 42 44 42 11 21 23 17 12 12 4 3 5 6 8 6 4 5 8 6 9 8 4 9 16 8 8 7 5 18 18 20 9 16 14 4 2 1
22 24 26 28 30 31 34 35 37 39 41 41 40 7 13 19 10 11 3 5 4 6 7 6 5 3 5 6 6 9 4 8 5 14 14 3 9 16 19 11 20 24 7 6 3 16 10
24 25 27 28 29 31 32 33 36 37 40 38 28 11 16 32 8 4 2 3 5 21 23 4 3 2 5 4 4 5 4 8 17 13 14 4 4 14 12 11 14 15 16 5 6 5 10
24 26 27 28 29 29 30 32 34 35 37 34 17 4 19 19 9 5 3 7 14 16 23 6 4 5 3 3 3 3 3 4 16 15 9 8 5 6 12 10 5 7 10 13 9 11 3
25 26 27 28 29 29 31 31 32 31 28 30 16 7 15 15 4 4 6 7 8 14 11 11 6 4 4 2 1 3 3 5 8 8 5 6 3 7 11 3 3 5 5 7 5 5 9
25 26 27 29 29 29 29 29 28 27 23 21 8 4 9 8 8 3 5 4 10 12 6 14 15 2 2 4 2 3 4 5 5 6 7 6 3 10 10 16 17 11 17 9 9 7 7
26 27 28 28 29 28 28 27 25 24 18 12 4 2 3 4 6 11 9 5 8 7 5 5 6 10 3 2 5 4 3 4 11 3 3 3 6 13 20 23 24 24 22 20 14 14 13
27 29 30 30 29 28 27 25 23 21 15 6 5 4 3 6 9 9 4 3 9 11 8 10 6 12 4 6 8 6 6 5 7 6 4 3 5 14 21 20 18 19 18 12 11 16 8
30 31 31 31 29 28 26 23 20 15 10 3 3 7 5 6 3 3 3 8 17 18 10 7 11 12 12 11 14 20 28 26 10 7 4 3 1 7 7 7 10 2 14 10 3 11 7
32 32 32 30 28 26 24 21 17 11 8 8 10 11 3 4 3 2 8 16 15 15 10 18 9 1 8 25 31 22 22 25 24 15 19 6 3 4 6 8 6 9 19 12 18 20 21
34 32 30 27 25 23 22 20 16 10 7 10 12 12 5 3 7 9 9 8 14 17 6 10 10 17 19 16 3 5 5 5 14 15 14 14 7 5 3 3 2 17 19 14 6 14 21
33 29 25 24 23 22 20 18 16 12 6 9 12 12 10 2 4 8 5 11 5 4 5 6 23 14 10 1 2 3 3 3 4 2 12 11 7 6 8 3 2 9 25 31 6 16 19
29 25 24 23 23 22 20 20 18 11 6 8 11 8 8 5 8 7 4 4 5 5 3 7 16 9 13 4 2 2 2 6 4 5 4 5 4 8 9 6 4 21 26 21 9 9 24
26 24 24 24 24 24 23 20 13 6 2 5 5 6 8 4 13 9 10 9 8 6 2 9 6 6 5 6 3 3 3 5 3 3 2 2 2 2 4 3 3 29 13 7 5 18 24
23 24 26 26 26 25 21 14 7 2 1 2 2 1 2 10 7 12 10 14 10 14 12 5 2 5 6 3 3 3 2 3 1 3 4 5 3 2 3 3 4 16 8 17 16 18 22
Wind_Direction
28 26 23 20 18 16 13 11 9 6 3 0 357 353 351 350 349 347 344 340 335 326 323 317 315 307 284 258 252 199 174 104 181 186 191 192 195 198 196 197 237 234 247 235 245 277 271
26 23 22 21 19 16 14 11 9 6 3 0 356 353 350 350 349 347 345 345 339 330 331 308 302 303 249 244 311 188 221 234 212 194 196 191 200 197 227 239 204 232 230 246 177 336 322
24 24 23 21 18 16 13 11 9 6 2 360 356 353 350 348 347 344 346 349 341 329 318 304 292 288 248 248 211 219 220 231 221 214 200 202 183 188 217 251 238 248 265 245 207 174 122
22 22 20 17 16 15 12 10 9 7 3 359 355 351 348 346 345 339 346 349 345 344 3 333 296 263 251 271 260 225 239 216 228 220 218 206 201 218 252 268 317 225 234 250 220 178 133
22 19 17 17 16 14 12 11 11 8 5 2 357 352 346 346 343 337 349 346 346 339 342 356 313 285 266 254 261 266 202 204 201 193 210 203 204 226 253 209 332 229 245 240 251 201 146
19 16 17 16 14 13 12 10 7 5 5 4 359 353 349 345 342 335 347 353 360 343 318 345 314 299 265 357 317 301 240 203 186 184 195 204 204 173 211 149 212 196 229 222 234 217 155
17 18 18 16 15 13 10 7 3 1 359 356 356 353 348 344 344 340 349 13 13 338 310 283 265 265 279 288 298 292 214 194 199 178 177 193 194 211 217 201 241 255 226 232 257 157 160
18 18 17 18 18 13 8 5 2 360 356 354 352 351 345 349 342 351 3 29 6 329 310 322 310 266 277 283 295 276 238 199 185 209 173 185 220 212 216 227 223 231 254 252 272 274 196
18 16 15 15 13 9 6 4 0 357 356 353 350 347 344 343 345 347 356 355 354 349 286 298 319 354 342 296 223 268 281 290 187 195 211 216 238 207 211 228 222 230 233 247 241 300 31
14 12 11 11 10 7 4 3 1 359 356 351 347 345 342 337 358 349 352 343 355 339 37 280 21 15 4 265 237 315 282 235 243 215 209 231 241 219 215 230 211 230 232 251 257 262 213
10 8 7 6 5 4 4 1 358 355 355 351 346 346 337 335 345 358 348 350 345 44 348 58 5 356 352 38 331 352 23 253 220 241 170 226 200 227 221 225 212 234 233 246 251 229 214
5 4 2 360 1 0 358 355 354 352 353 351 348 347 338 340 19 9 359 351 19 42 253 13 28 340 23 13 8 1 12 17 283 229 244 234 234 221 228 235 228 226 230 255 261 193 241
360 359 357 357 356 354 353 352 350 349 353 350 348 347 331 346 16 10 -0 358 45 141 349 11 349 351 57 355 9 14 1 44 41 355 258 257 240 245 225 214 235 214 149 240 290 239 232
353 352 351 352 352 349 348 348 349 347 352 350 349 356 1 83 10 2 349 37 90 319 19 21 329 26 56 10 347 7 17 28 45 52 279 288 244 224 237 213 200 211 204 198 214 197 230
346 345 344 347 347 344 344 344 347 346 351 351 350 42 37 5 336 327 337 13 232 5 339 338 359 38 18 20 333 14 7 44 47 54 22 332 287 339 213 236 205 216 210 204 176 196 156
339 337 338 341 341 341 342 342 344 346 349 352 349 354 15 346 342 310 75 231 270 346 360 354 25 331 5 7 25 8 359 25 43 38 25 303 294 275 268 235 237 213 166 194 213 228 244
337 334 336 338 337 340 339 341 343 346 346 354 354 344 352 336 337 322 94 312 323 350 19 314 310 3 45 17 33 345 318 338 21 1 6 325 252 298 312 219 225 214 211 226 168 157 219
334 333 334 333 336 338 337 340 341 347 346 358 350 355 349 349 50 16 49 324 317 5 1 346 39 63 98 46 354 316 328 336 0 5 353 24 292 288 259 309 231 256 191 199 206 225 212
332 334 333 333 335 334 334 337 339 346 353 346 340 301 348 38 52 355 321 324 332 4 344 0 332 36 32 29 344 335 344 356 2 5 22 38 327 316 315 95 208 231 213 192 143 142 202
333 335 333 333 333 334 333 337 340 344 351 350 342 349 340 29 56 19 330 290 336 337 321 359 291 11 40 3 173 283 307 342 312 313 310 74 248 265 275 296 304 294 314 246 189 189 180
335 334 334 333 332 332 331 334 337 340 349 357 356 19 35 329 346 326 316 294 322 333 353 18 289 28 36 341 319 288 292 314 293 143 39 126 265 273 269 275 274 265 265 271 210 205 192
336 334 332 330 330 329 329 332 333 335 343 6 326 344 331 282 286 315 309 311 327 339 324 309 316 321 297 214 208 238 231 163 231 128 113 300 255 310 289 265 239 243 250 241 252 206 145
334 332 330 329 329 328 328 330 331 331 332 341 285 289 287 270 283 306 298 331 318 317 305 312 311 305 288 272 304 254 261 259 225 160 120 221 286 334 265 304 288 188 352 11 291 184 156
333 331 330 330 328 328 331 330 328 322 299 279 281 282 205 280 237 245 281 299 298 317 293 300 352 298 284 307 310 287 261 247 241 189 151 195 227 222 267 302 165 119 28 37 63 34 17
332 333 334 332 331 333 335 330 323 316 280 277 277 266 227 258 250 276 280 300 306 309 283 306 320 318 308 298 289 322 293 284 244 182 173 196 196 265 261 285 249 21 3 346 14 38 12
334 338 335 336 336 338 336 328 326 319 279 271 270 268 248 278 244 249 292 300 294 315 329 291 339 358 347 283 318 242 269 263 153 139 212 183 193 255 311 300 28 0 338 334 132 37 12
337 339 340 341 342 339 332 329 328 320 286 267 271 281 241 235 281 290 242 274 276 287 275 292 335 334 7 12 330 292 287 305 25 52 107 174 244 260 292 257 91 355 353 7 60 17 360
340 344 343 343 341 336 333 330 331 336 302 255 289 298 260 254 296 301 308 273 277 279 288 311 351 8 342 18 359 327 315 344 24 40 17 121 217 348 310 3 68 350 8 59 287 347 360
345 345 346 345 340 337 336 342 341 326 222 214 275 71 232 240 294 342 29 1 331 275 275 313 300 2 11 12 348 303 262 279 327 48 47 61 339 334 340 275 43 341 348 295 309 347 353